User: anonymous   Login
Location: T�bingen+AIT
(48.5342°N, 9.0700°E)
Time: 05:04:17
(UTC+02:00)
Language:

SPOT 5 - Orbit

View from above orbital plane
View from above orbital plane
View from above satellite
View from above satellite

Ground track
Ground track

The orbit data is extracted from the following two-line orbital elements,

1 27421U 02021A   18114.50691034  .00000051  00000-0  22330-4 0  9994
2 27421  98.3626 182.4220 0136548  94.8157 266.8649 14.51926307830844
Epoch (UTC): 24 April 2018 12:09:57
Eccentricity: 0.0136548
inclination: 98.3626°
perigee height: 622 km
apogee height: 816 km
right ascension of ascending node: 182.4220°
argument of perigee: 94.8157°
revolutions per day: 14.51926307
mean anomaly at epoch: 266.8649°
orbit number at epoch: 83084

The dashed part of the orbit path shows where the satellite is in the earth's shadow,  

DLR